Change the Weather History Date:

Thursday, December 26, 2013

  Actual Average Record
Temperature  
Mean Temperature 29 °F 25 °F  
Max Temperature 40 °F 33 °F 57 °F (2008)
Min Temperature 17 °F 16 °F -13 °F (1962)
Degree Days  
Heating Degree Days 36 40  
Month to date heating degree days 1108 978  
Since 1 July heating degree days 2343 2226  
Cooling Degree Days 0 0  
Month to date cooling degree days 0 0  
Year to date cooling degree days 1093 946  
Moisture  
Dew Point 20 °F    
Average Humidity 69    
Maximum Humidity 84    
Minimum Humidity 54    
Precipitation  
Precipitation 0.00 in 0.04 in 0.45 in (1988)
Month to date precipitation 0.83 1.28  
Sea Level Pressure  
Sea Level Pressure 30.23 in    
Wind  
Wind Speed 11 mph (SW)    
Max Wind Speed 22 mph    
Max Gust Speed 28 mph    
Visibility 10 miles    
Events      
T = Trace of Precipitation, MM = Missing Value Source: NWS Daily Summary

Daily Weather History Graph

Daily Weather History Graph

Search for Another Location

Airport or City:

Trip Planner

Search our weather history database for the weather conditions in past years. The results will help you decide how hot, cold, wet, or windy it might be!

Date:

Astronomy

Dec. 26, 2013 Rise Set
Actual Time 7:38 AM CST 4:54 PM CST
Civil Twilight 7:07 AM CST 5:25 PM CST
Nautical Twilight 6:32 AM CST 6:00 PM CST
Astronomical Twilight 5:59 AM CST 6:33 PM CST
Moon 1:06 AM CST (12/26) 12:31 PM CST (12/26)
Length of Visible Light 10h 18m
Length of Day
9h 16m
Last Quarter, 38% of the Moon is Illuminated
Dec 26
Last Quarter
Jan 1
New
Jan 7
First Quarter
Jan 15
Full
Jan 23
Last Quarter

Hourly Weather History & Observations

Time (CST) Temp. Windchill Dew Point Humidity Pressure Visibility Wind Dir Wind Speed Gust Speed Precip Events Conditions
12:53 AM 21.0 °F 13.4 °F 14.0 °F 74% 30.31 in 10.0 mi WSW 5.8 mph - N/A   Clear
1:53 AM 18.0 °F 6.9 °F 12.0 °F 78% 30.29 in 10.0 mi SSW 9.2 mph - N/A   Clear
2:53 AM 18.0 °F 6.9 °F 14.0 °F 84% 30.27 in 10.0 mi South 9.2 mph - N/A   Clear
3:53 AM 19.9 °F 7.3 °F 16.0 °F 85% 30.26 in 10.0 mi SW 12.7 mph - N/A   Clear
4:53 AM 21.0 °F 8.6 °F 17.1 °F 85% 30.25 in 10.0 mi SW 12.7 mph - N/A   Clear
5:53 AM 19.9 °F 6.7 °F 16.0 °F 85% 30.23 in 10.0 mi SW 13.8 mph - N/A   Clear
6:53 AM 21.9 °F 9.8 °F 17.1 °F 82% 30.23 in 10.0 mi SW 12.7 mph - N/A   Clear
7:53 AM 19.9 °F 6.2 °F 16.0 °F 85% 30.23 in 10.0 mi SSW 15.0 mph - N/A   Clear
8:53 AM 23.0 °F 10.1 °F 18.0 °F 81% 30.23 in 10.0 mi SSW 15.0 mph - N/A   Clear
9:53 AM 28.0 °F 16.1 °F 21.0 °F 75% 30.22 in 10.0 mi SSW 16.1 mph - N/A   Partly Cloudy
10:53 AM 32.0 °F 21.6 °F 23.0 °F 69% 30.21 in 10.0 mi SSW 15.0 mph - N/A   Clear
11:53 AM 37.0 °F 27.4 °F 26.1 °F 65% 30.17 in 10.0 mi SSW 17.3 mph - N/A   Mostly Cloudy
12:53 PM 37.9 °F 27.9 °F 24.1 °F 57% 30.15 in 10.0 mi SW 19.6 mph 28.8 mph N/A   Mostly Cloudy
1:53 PM 39.0 °F 31.4 °F 24.1 °F 55% 30.16 in 10.0 mi WSW 12.7 mph 23.0 mph N/A   Clear
2:53 PM 39.0 °F 31.0 °F 25.0 °F 57% 30.16 in 10.0 mi WSW 13.8 mph - N/A   Clear
3:53 PM 37.9 °F 30.0 °F 24.1 °F 57% 30.18 in 10.0 mi WSW 12.7 mph - N/A   Clear
4:53 PM 36.0 °F 29.0 °F 25.0 °F 64% 30.20 in 10.0 mi West 9.2 mph - N/A   Clear
5:53 PM 32.0 °F 25.6 °F 24.1 °F 73% 30.22 in 10.0 mi WSW 6.9 mph - N/A   Clear
6:53 PM 32.0 °F 25.6 °F 23.0 °F 69% 30.24 in 10.0 mi West 6.9 mph - N/A   Clear
7:53 PM 30.9 °F 25.2 °F 23.0 °F 72% 30.24 in 10.0 mi WSW 5.8 mph - N/A   Clear
8:53 PM 30.0 °F 23.2 °F 21.9 °F 72% 30.25 in 10.0 mi WSW 6.9 mph - N/A   Clear
9:53 PM 28.9 °F 21.9 °F 21.9 °F 75% 30.26 in 10.0 mi SW 6.9 mph - N/A   Clear
10:53 PM 28.9 °F 21.9 °F 21.9 °F 75% 30.26 in 10.0 mi WSW 6.9 mph - N/A   Clear
11:53 PM 27.0 °F 18.0 °F 21.0 °F 78% 30.27 in 10.0 mi West 9.2 mph - N/A   Clear